Starlink 4038

operational
NORAD ID: 53150 Int'l Des: 2022-083 Owner: SPXS Country: US Constellation: starlink
LEOCIRCULAR

关于 Starlink 4038

正在加载描述...

实时位置

正在加载3D地球...

即将过境

高度历史

Altitude vs Time

uPlot chart will show altitude changes over time

两行轨道根数

1 53150U 22083U 25352.00002315 .00617974 00000-0 11430-1 0 9991
2 53150 53.2166 164.6223 0001215 84.6353 203.8952 15.46200673 5548
Epoch: Dec 18, 2025 • Age: 9 hours

当前状态

高度 428.8 km
速度 7.66 km/s
星下点 35.91°N, 93.56°E
发射日期 Jul 17, 2022
运行时间 3.4 years
类型 internet

技术详情

分类 Payload
质量 297.00 kg
干质量 275.00 kg
总质量 297.00 kg
长度 0.20 m
直径 2.80 m
跨度 9.00 m
形状 Box + pan
制造商 SPXS
平台类型 Starlink
阶段状态 In Orbit
所有者/国家 SPXS/US

大型星座

Loading constellations...